{"data":{"norad_id":56014,"intl_designator":"2023-042AE","name":"STARLINK-5942","alt_names":[],"object_type":"PAYLOAD","status":"ACTIVE","operator":null,"country":"US","launch_date":"2023-03-24","launch_site_code":"AFETR","launch_vehicle":null,"mission":null,"orbit_class":"UNKNOWN","rcs_meters":null,"size_class":null,"mass_kg":null,"dimensions":null,"purposes":["comms"],"wikipedia_slug":null,"has_3d_model":false,"image_url":null,"decayed_at":null,"tle_current":{"epoch":"2026-05-24T17:11:30.430752Z","epoch_age_seconds":109632,"freshness":"FRESH","line1":"1 56014U 23042AE  26144.71632443  .00002109  00000+0  86151-4 0  9990","line2":"2 56014  43.0048 335.8032 0001926 279.6054  80.4580 15.27583145174662","mean_motion":15.27583145,"eccentricity":0.0001926,"inclination_deg":43.0048,"raan_deg":335.8032,"arg_perigee_deg":279.6054,"mean_anomaly_deg":80.458,"bstar":8.6151e-5,"rev_number":17466,"period_min":94.26655463654,"perigee_km":481.71821616607,"apogee_km":484.36114142274,"semimajor_km":6861.1766787944,"source":"CELESTRAK","updated_at":"2026-05-25T13:38:17.927302Z"}}}